Theta_e
295 294 293 293 293 293 293 293 293 293 293 292 293 292 292 292 292 292 292 292 292 293 292 291 292 290 290 288 286 286 286 283 284 285 277 273 274 275 278 278 279 280 278
296 294 294 294 293 293 293 293 293 293 293 293 293 292 292 292 292 291 291 292 291 291 292 290 291 292 288 289 287 287 285 283 285 285 276 274 275 270 272 272 278 282 278
295 295 294 294 294 293 293 293 293 293 293 293 292 292 291 291 290 290 291 290 290 290 290 289 290 289 288 287 286 286 284 286 281 282 284 272 272 275 273 275 275 273 281
294 294 293 293 293 293 293 293 293 293 292 292 292 292 291 291 290 289 289 289 289 289 289 289 289 288 288 287 285 285 284 281 277 276 278 275 273 273 272 274 276 276 276
292 292 292 293 293 293 292 292 292 292 291 291 291 291 290 290 290 289 288 287 287 286 286 286 287 286 288 289 287 284 282 279 276 277 274 272 271 275 274 273 275 276 277
292 292 292 292 292 291 291 291 291 290 290 290 290 289 289 289 292 292 291 287 287 286 285 285 285 283 284 288 290 291 286 281 278 275 273 275 274 271 273 276 277 276 276
291 291 291 291 291 291 291 290 290 290 290 289 288 288 288 288 292 291 289 287 286 285 284 284 284 285 283 283 286 289 289 289 288 279 278 276 273 276 277 278 278 277 278
289 289 289 289 289 289 290 289 289 289 287 287 286 286 286 287 291 290 289 285 285 284 284 283 283 283 283 283 283 283 283 283 283 283 281 281 280 280 280 280 279 279 280
287 287 288 288 288 287 287 287 287 286 285 285 284 285 285 285 290 290 287 284 284 284 284 284 283 283 285 288 284 282 283 283 285 286 287 286 286 287 283 281 279 276 276
286 285 286 287 287 286 285 285 284 285 284 284 284 284 283 284 289 289 287 284 283 284 284 285 286 285 289 289 284 283 282 282 281 281 282 284 285 283 285 280 280 276 278
284 284 284 284 284 285 284 284 283 283 283 283 284 283 283 283 285 287 288 283 283 284 285 285 283 288 289 289 289 282 282 282 282 280 280 280 280 280 280 280 281 281 279
284 283 283 283 284 284 282 283 283 283 284 283 283 283 284 284 286 287 287 288 287 284 284 284 283 287 287 288 285 288 287 283 277 275 275 278 279 277 278 279 280 281 281
283 282 281 281 282 283 282 281 282 283 283 282 282 282 282 284 284 286 286 287 287 285 285 284 284 285 285 283 286 286 278 276 274 271 271 274 276 276 277 277 278 277 277
282 282 282 281 281 281 282 283 282 282 282 282 281 281 282 283 284 284 284 284 284 283 282 282 284 284 284 282 281 282 276 276 276 273 272 272 275 275 275 277 275 276 275
283 282 283 283 283 283 283 283 283 283 283 282 282 282 282 282 283 285 285 284 283 282 275 277 280 278 278 277 279 277 278 272 274 271 271 271 271 274 273 276 276 276 275
283 282 283 283 283 282 283 283 286 286 286 286 286 285 284 286 286 286 287 287 286 285 279 280 279 279 278 278 279 280 276 272 272 277 277 277 271 271 274 276 277 276 275
283 282 282 282 282 281 282 281 281 284 286 286 286 286 286 286 287 286 286 285 285 284 279 279 278 279 279 280 280 273 278 278 277 280 281 278 277 274 273 274 276 276 274
282 282 282 282 282 282 282 282 282 281 280 281 285 285 285 285 285 285 285 282 277 281 280 280 280 280 280 280 280 279 279 280 278 274 272 271 269 271 272 273 274 274 274
281 281 282 282 282 282 282 282 282 281 280 280 281 283 284 285 284 285 284 281 280 280 280 280 280 280 281 280 274 277 277 276 270 267 267 267 267 269 271 274 275 275 274
282 282 282 282 282 282 282 282 281 280 280 280 280 280 282 282 280 280 280 280 280 280 279 279 279 281 280 279 277 277 274 272 268 265 266 267 267 268 270 271 274 274 274
282 281 282 282 281 281 282 281 281 281 279 279 280 282 282 279 280 279 279 278 278 278 278 278 278 279 279 278 277 276 276 273 267 265 265 266 270 271 271 272 272 274 273
281 281 281 281 281 281 281 281 281 280 280 279 279 280 282 280 279 279 278 279 279 279 279 279 278 279 280 279 279 278 278 276 274 271 272 267 268 269 270 270 270 270 268
281 281 281 281 281 280 280 280 280 279 278 278 277 278 279 279 279 280 279 279 279 279 279 278 278 277 278 278 279 279 278 277 277 273 274 274 272 268 266 266 266 266 268
282 281 280 279 279 279 279 279 278 278 276 275 276 278 279 279 278 278 276 269 268 276 278 277 277 276 276 275 275 276 278 278 277 274 273 273 275 271 270 266 267 270 267
279 278 278 277 276 273 272 271 271 270 270 270 269 269 268 257 257 257 256 256 258 258 261 265 270 273 275 275 276 275 272 270 270 269 269 273 274 274 273 270 267 265 268
268 268 267 268 270 269 269 268 268 267 266 263 256 257 256 255 255 255 254 254 255 255 257 258 260 261 262 266 272 274 274 274 272 269 269 271 274 274 274 272 270 269 267
Wind_Speed
10 9 8 8 8 7 7 6 6 5 6 6 6 6 7 6 6 6 6 6 7 8 7 8 10 6 6 5 4 4 6 5 9 5 3 2 3 3 4 3 3 3 3
8 7 8 7 6 6 6 6 6 6 5 6 6 6 6 6 6 7 7 7 9 10 9 7 10 5 7 6 5 8 7 6 6 12 2 3 5 2 3 3 3 2 2
7 7 6 6 6 6 6 6 6 6 6 5 5 6 6 6 6 6 7 7 7 8 7 7 9 6 7 5 6 7 5 5 5 5 7 1 2 1 2 2 2 2 2
6 6 6 6 6 6 5 5 5 5 5 5 5 5 5 5 5 5 6 6 6 6 7 7 7 7 9 7 6 7 5 4 3 3 4 3 2 2 1 2 3 1 2
7 6 6 5 5 5 4 4 3 3 3 3 2 1 1 2 3 4 5 5 6 6 6 6 7 7 11 11 5 6 5 4 2 4 2 1 2 2 3 2 2 1 2
7 6 6 6 6 6 5 5 5 4 4 3 3 3 3 2 5 5 4 3 5 5 6 6 5 6 8 12 14 17 9 5 4 3 2 4 4 3 2 3 2 1 2
7 6 6 6 6 6 6 6 5 5 5 6 5 5 5 5 9 9 7 3 3 3 4 5 5 3 5 5 8 9 10 13 11 6 5 5 3 5 4 3 4 3 2
7 6 5 6 6 6 6 6 5 4 5 5 5 5 5 4 8 8 7 4 3 3 3 4 4 6 6 5 5 5 5 5 5 4 5 4 4 2 4 3 3 3 2
6 5 5 5 6 6 6 6 5 5 5 5 5 6 6 5 11 11 7 5 5 5 4 4 4 5 9 10 3 5 5 4 5 9 9 9 8 7 5 3 1 2 1
5 5 5 5 6 6 6 5 3 5 5 5 7 7 8 6 13 13 9 3 4 4 5 5 7 6 10 9 2 2 4 4 4 4 3 2 1 1 5 2 3 2 1
5 5 5 5 6 6 5 3 5 6 7 6 7 5 5 5 8 13 13 4 3 5 4 4 4 12 12 13 11 1 2 4 6 3 2 2 1 1 1 2 2 1 1
6 6 5 5 5 5 6 5 6 7 8 7 7 6 5 5 12 14 15 14 9 4 3 3 4 14 14 14 7 8 7 6 3 3 3 3 3 1 1 1 2 1 1
8 7 6 5 6 5 5 6 7 8 7 7 6 5 5 4 4 13 14 14 11 5 5 9 13 15 15 11 14 10 5 3 2 2 2 2 2 2 1 1 3 4 3
9 8 7 8 7 6 5 6 6 6 5 5 5 5 4 5 6 5 6 6 8 6 9 8 10 10 11 9 6 6 3 1 0 2 2 3 1 1 1 2 1 1 1
9 8 8 7 8 8 7 6 6 4 5 5 4 4 4 5 5 9 8 6 3 6 5 5 7 6 7 7 6 5 3 3 2 2 2 3 3 1 1 1 1 1 1
10 7 7 7 7 6 7 8 13 12 12 13 11 6 5 11 12 12 13 13 12 11 4 6 6 7 7 7 8 8 3 4 3 4 3 3 2 1 0 1 1 1 1
9 9 7 7 7 7 6 6 8 9 14 13 12 12 11 11 12 12 12 13 12 7 4 2 3 5 5 4 4 3 4 6 4 4 5 3 1 0 1 1 1 1 1
9 10 7 7 7 6 6 6 6 6 7 6 9 9 11 12 12 12 10 6 3 6 4 6 5 5 4 4 6 5 6 6 4 3 2 1 1 1 0 0 1 1 1
8 7 7 7 6 7 7 6 6 8 8 7 4 6 7 10 10 10 10 5 5 4 4 4 4 3 4 5 4 5 4 5 3 2 2 0 1 1 1 1 1 2 2
8 11 8 7 8 8 7 9 9 8 7 7 6 5 5 5 4 4 3 3 3 2 2 3 3 3 4 4 4 5 5 3 3 2 3 2 2 2 2 2 2 2 2
7 7 10 8 9 9 8 9 8 8 7 6 5 5 7 4 4 2 1 1 2 3 3 3 4 4 4 4 3 3 4 4 3 4 3 3 3 2 3 2 2 2 3
8 8 10 9 9 9 8 8 8 7 7 7 5 4 7 3 3 2 2 3 4 4 4 4 4 4 4 3 5 6 7 7 5 4 4 4 3 3 3 3 3 2 2
11 10 10 9 9 10 9 8 7 7 7 6 6 5 5 3 3 3 3 4 5 5 4 4 5 5 5 5 6 6 7 7 6 4 5 5 4 3 3 3 4 3 3
11 11 11 9 9 9 8 8 7 8 6 5 5 6 5 4 4 4 3 3 4 5 4 5 5 8 7 7 5 6 8 8 6 5 6 5 6 4 3 3 3 5 4
9 9 9 9 9 6 6 5 4 4 3 4 4 3 2 1 1 2 2 3 3 4 4 5 6 9 10 13 12 10 9 11 9 7 4 6 8 8 6 5 4 3 4
6 6 5 5 6 5 5 6 5 5 5 4 3 3 2 1 1 1 2 3 3 3 5 4 5 8 9 8 11 15 15 14 10 9 5 6 7 7 6 8 8 6 6
Wind_Direction
174 178 176 184 183 179 192 201 207 200 202 213 214 220 221 218 209 209 221 217 224 242 230 228 244 220 235 224 204 213 226 199 253 271 223 257 294 275 302 295 275 274 273
169 163 179 168 168 181 195 204 198 213 203 215 215 220 226 222 212 212 222 221 225 238 246 233 251 229 235 233 208 228 222 208 231 265 251 258 218 239 261 301 296 263 241
147 157 161 167 173 193 203 206 198 207 216 221 215 220 225 225 223 223 225 229 233 240 242 229 245 224 242 235 222 237 231 235 210 231 267 253 272 227 307 266 259 301 261
134 144 151 164 178 186 195 199 202 202 205 220 226 233 236 240 235 237 235 240 240 244 241 238 243 228 242 239 230 235 232 229 183 205 248 266 222 257 184 234 294 268 261
128 133 149 154 158 162 171 177 181 175 188 197 191 205 261 252 255 251 247 249 254 260 253 248 247 240 238 240 241 243 215 222 189 219 248 279 255 213 196 225 223 288 277
113 114 116 114 117 119 118 119 116 112 110 100 79 65 37 13 346 332 299 270 270 267 277 280 272 267 264 263 256 252 216 203 219 182 218 224 248 207 197 197 165 149 265
98 96 101 107 104 105 109 106 100 92 89 79 68 66 57 42 32 31 21 0 319 309 308 314 312 301 300 292 294 286 267 251 225 187 219 212 220 206 187 200 201 197 227
93 94 97 103 102 98 95 98 95 92 89 86 72 66 72 40 35 27 22 10 5 355 357 341 312 307 300 293 290 286 279 287 272 237 212 225 220 214 204 207 202 169 93
98 95 94 108 112 110 102 98 95 94 82 77 73 69 67 43 30 22 24 8 11 10 3 348 338 328 321 329 317 313 321 307 311 291 257 252 257 259 204 130 124 96 272
114 114 104 106 106 107 112 103 83 86 92 87 72 58 51 44 36 33 31 24 28 24 359 359 4 360 358 353 322 290 313 329 331 332 332 284 291 349 193 104 146 156 177
121 112 107 104 105 100 100 83 93 88 87 82 82 65 63 49 37 35 31 29 29 37 31 5 358 6 9 9 7 136 327 341 344 355 9 32 39 53 26 143 149 152 210
119 111 102 97 95 90 94 86 86 97 102 97 98 83 58 39 42 42 41 43 56 53 32 12 3 28 28 30 33 35 15 35 34 27 18 321 299 296 270 200 197 191 270
108 105 100 91 97 105 95 98 104 104 102 96 85 74 58 35 40 51 61 67 60 50 42 41 39 34 30 23 21 44 50 56 53 23 305 280 247 250 176 103 60 83 59
124 122 118 108 101 90 95 102 103 99 89 83 82 76 68 63 61 65 69 61 37 39 37 40 37 36 35 26 19 8 1 22 247 253 266 259 259 259 233 150 134 140 116
133 131 125 118 113 109 94 88 88 79 95 104 93 93 86 76 67 82 80 70 55 56 56 32 26 16 13 8 3 345 329 329 301 279 284 277 283 267 189 140 133 152 191
136 136 138 132 123 112 110 101 89 92 89 93 96 87 82 100 96 90 80 64 57 63 65 43 34 24 16 8 4 357 329 316 290 287 271 270 261 241 185 150 140 158 170
143 141 136 128 124 123 117 115 114 93 95 94 98 102 105 102 67 77 79 73 70 62 66 27 32 29 18 356 341 346 334 339 314 322 311 295 258 178 188 212 154 138 129
132 127 126 125 128 128 128 123 121 122 123 116 103 105 97 89 85 86 90 84 50 44 53 48 36 24 358 352 355 346 341 345 340 328 326 322 234 149 112 208 190 163 140
131 130 128 126 127 123 127 133 139 137 133 129 120 90 93 96 90 81 77 78 76 64 55 47 34 22 7 354 347 336 322 323 304 310 307 256 240 141 270 199 195 203 151
129 131 132 135 135 137 148 152 148 142 141 139 132 131 132 125 107 93 83 79 70 44 358 348 344 353 346 352 333 327 319 316 313 298 278 258 236 202 226 212 196 172 182
139 139 144 144 153 160 158 154 152 151 150 148 144 148 152 138 136 126 96 344 299 298 306 308 310 318 322 325 318 310 307 302 288 268 262 259 246 233 215 212 205 191 163
149 151 158 161 160 162 162 158 158 157 160 160 160 162 162 163 171 188 223 250 263 268 274 287 284 297 297 294 305 308 304 301 296 288 280 265 251 231 205 179 194 190 179
160 159 162 163 164 162 162 162 162 166 170 177 177 181 186 193 203 224 258 281 281 278 289 293 292 289 293 298 296 286 287 287 291 282 274 269 257 239 212 212 180 177 202
167 166 165 166 165 166 168 168 172 180 182 187 194 189 193 205 218 236 276 322 316 311 303 309 309 304 305 306 295 298 290 286 282 270 257 253 255 242 224 207 201 201 178
164 162 165 166 165 161 159 166 172 164 165 174 177 185 179 243 52 345 318 316 315 333 331 337 333 321 314 312 305 296 285 281 272 268 258 244 246 239 234 222 208 205 198
146 148 147 151 158 160 162 164 168 171 173 178 173 173 175 162 223 290 315 326 313 301 307 310 308 313 317 315 311 309 306 297 280 264 248 249 249 243 235 235 222 219 204